Regional Weather Roundup
Issued by NWS Portland, ME

Home | Current Version | Previous Version | Text Only | Print | Product List | Glossary On
Versions: 1 2 3 4 5 6 7 8 9 10 11 12 13 14 15 16 17 18 19 20 21 22 23 24 25 26 27 28 29 30 31 32 33 34 35 36 37 38 39 40 41 42 43 44 45 46 47 48 49 50
000
ASUS41 KGYX 261110
RWRGYX
WEATHER ROUNDUP FOR MAINE AND NEW HAMPSHIRE
NATIONAL WEATHER SERVICE GRAY ME
700 AM EDT WED JUL 26 2017

MEZ002-005-006-010-012-015-018-020-021-024-026-027-029-261200-
MAINE

CITY           SKY/WX    TMP DP  RH WIND       PRES   REMARKS
PORTLAND       SUNNY     60  57  89 NW5       30.22R
SANFORD        SUNNY     61  58  90 CALM      30.23R
BAR HARBOR     SUNNY     55  53  93 N3        30.21R
WISCASSET      SUNNY     57  55  93 CALM      30.22S
ROCKLAND       SUNNY     56  54  93 CALM      30.20S
FRYEBURG       SUNNY     56  56 100 CALM      30.24F
LEWISTONAUBURN SUNNY     55  53  93 N3        30.23R
AUGUSTA        SUNNY     60  52  74 CALM      30.23R
WATERVILLE     SUNNY     59  53  80 N3        30.20R
BANGOR         MOSUNNY   58  55  90 CALM      30.22R
GREENVILLE       N/A    N/A N/A N/A MISG      30.22S
MILLINOCKET    SUNNY     57  52  83 CALM      30.22S
HOULTON        SUNNY     55  52  89 CALM      30.20R
PRESQUE ISLE   SUNNY     50  49  96 CALM      30.21S
FRENCHVILLE    SUNNY     55  44  66 W5        30.19S
CARIBOU        SUNNY     53  49  86 CALM      30.19S
$$

NHZ002-005-008-009-011-012-014-261200-
NEW HAMPSHIRE

CITY           SKY/WX    TMP DP  RH WIND       PRES   REMARKS
PORTSMOUTH     SUNNY     59  56  91 NW5       30.21R
ROCHESTER      SUNNY     59  55  87 NW6       30.22R
NASHUA         SUNNY     56  54  93 NW3       30.24S
MANCHESTER     SUNNY     60  53  77 N5        30.23R
CONCORD        FOG       55  54  96 CALM      30.25R VSB 3/4
LACONIA        SUNNY     59  56  89 SW5       30.25S
PLYMOUTH       CLOUDY    53  52  97 CALM      30.26S FOG
BERLIN         FOG       49  47  93 CALM      30.28S VSB 1/4
WHITEFIELD     FOG       51  49  92 CALM      30.27F VSB<1/4
JAFFREY          N/A     50  50 100 CALM      30.26S FOG
KEENE          FOG       54  54 100 CALM      30.27  VSB 1/4
LEBANON        FOG       55  55 100 CALM      30.26S VSB 1/4
MT WASHINGTON  MOSUNNY   46  23  39 NW5         N/A
$$

VTZ005-007-008-261200-
VERMONT

CITY           SKY/WX    TMP DP  RH WIND       PRES   REMARKS
ST JOHNSBURY     N/A     53  53 100 MISG      30.25F
MONTPELIER     FOG       53  53 100 CALM      30.29F VSB<1/4
BURLINGTON     SUNNY     58  55  90 CALM      30.25S
$$

MAZ007-012-024-CTZ003-RIZ002-NYZ038-NYZ072-261200-
SOUTHERN NEW ENGLAND AND NY

CITY           SKY/WX    TMP DP  RH WIND       PRES   REMARKS
BOSTON         SUNNY     63  56  78 VRB5      30.23R
WORCESTER      SUNNY     61  53  75 NW6       30.25R
NANTUCKET      MOSUNNY   61  60  97 NE5       30.22R
PROVIDENCE     MOSUNNY   59  58  96 CALM      30.23S
HARTFORD       MOSUNNY   57  56  96 N3        30.25S
ALBANY         FOG       59  58  96 CALM      30.26R VSB 1/8
NEW YORK CITY  MOSUNNY   66  58  75 N5        30.23S
$$

ANZ081-ANZ082-ANZ150-NHZ014-MEZ023>029-261200-
COASTAL MARINE OBSERVATIONS

STATION/POSITION TIME  TEMP    WIND        PRES    WAVE
                       AIR SEA DIR/SP/G            HT/PER
                 (UTC) (F)     (DEG/KT/KT) (MB)    (FT/S)
MOUNT DESERT ROC 1100   55                 1022.7R
MATINICUS ROCK   1000   56     270/  9/  9 1022.1R
ISLE OF SHOALS   1000   61     320/  9/ 10 1022.7R
JEFFREYS LEDGE   1036      63                N/A     3/ 8
CASHES LEDGE BUO 0950   61 60              1022.4    3/ 8
GEORGES BANK BUO 0950   60 58              1019.3    6/ 9
$$

.............KEY..............
   WCI - WIND CHILL
   TC  - TEMPERATURE IN CELSIUS
   VSB - VISIBILITY IN MILES
   HX  - HEAT INDEX
   FAIR- INDICATES FEW OR NO CLOUDS BELOW 12,000 FT, WITH NO
         SIGNIFICANT WEATHER AND/OR OBSTRUCTIONS TO VISIBILITY.






USA.gov is the U.S. government's official web portal to all federal, state and local government web resources and services.